CW4498 Weather Reports


time (UTC)temp
C
wind
direction
speed
KPH
gust
KPH
rain 1hr
cm
rain 24hr
cm
rain mn
cm
humidity
%
barometer
mb
20260503214526 18 272 0.0 6.4 0.00 0.00 0.00 18 1018.1
20260503213022 17 215 0.0 11.3 0.00 0.00 0.00 18 1018.3
20260503211523 18 226 1.6 9.7 0.00 0.00 0.00 18 1018.7
20260503210025 18 91 4.8 8.0 0.00 0.00 0.00 17 1018.9
20260503204521 18 114 3.2 14.5 0.00 0.00 0.00 17 1019.2
20260503203022 18 81 4.8 16.1 0.00 0.00 0.00 16 1019.6
20260503201518 20 107 6.4 11.3 0.00 0.00 0.00 16 1019.7
20260503200016 19 88 1.6 6.4 0.00 0.00 0.00 17 1020.1
20260503194515 20 132 3.2 14.5 0.00 0.00 0.00 17 1020.3
20260503193012 19 89 1.6 11.3 0.00 0.00 0.00 18 1020.6
20260503191511 18 125 3.2 12.9 0.00 0.00 0.00 16 1020.8
20260503190009 18 126 0.0 9.7 0.00 0.00 0.00 19 1021.1
20260503184515 18 95 4.8 17.7 0.00 0.00 0.00 18 1021.3
20260503183006 18 87 3.2 11.3 0.00 0.00 0.00 19 1021.5
20260503181506 17 265 6.4 11.3 0.00 0.00 0.00 19 1021.9
20260503180003 16 277 4.8 24.1 0.00 0.00 0.00 19 1022.1
20260503174502 16 315 6.4 17.7 0.00 0.00 0.00 20 1022.6
20260503173118 16 124 1.6 8.0 0.00 0.00 0.00 21 1022.8
20260503171558 15 286 4.8 14.5 0.00 0.00 0.00 22 1023.1
20260503081514 7 275 0.0 4.8 0.00 0.00 0.00 35 1025.6
20260503071511 7 299 0.0 3.2 0.00 0.00 0.00 37 1026.3
20260503054503 7 103 0.0 3.2 0.00 0.00 0.00 37 1027.0
20260503053003 7 105 0.0 1.6 0.00 0.00 0.00 39 1027.0
20260503051502 7 105 0.0 3.2 0.00 0.00 0.00 37 1027.1
20260503050002 8 105 0.0 1.6 0.00 0.00 0.00 37 1027.1
20260503044502 8 104 0.0 6.4 0.00 0.00 0.00 34 1027.1
20260503043001 8 277 0.0 1.6 0.00 0.00 0.00 36 1027.2
20260503041502 8 275 0.0 3.2 0.00 0.00 0.00 36 1027.2
20260503034616 8 272 0.0 3.2 0.00 0.00 0.00 37 1027.1
20260503033102 8 269 0.0 1.6 0.00 0.00 0.00 36 1027.0
20260503031559 8 269 0.0 1.6 0.00 0.00 0.00 35 1026.9
20260503030059 9 269 0.0 1.6 0.00 0.00 0.00 33 1026.9
20260503024605 9 269 0.0 1.6 0.00 0.00 0.00 32 1026.7
20260503023059 10 270 0.0 3.2 0.00 0.00 0.00 30 1026.7
20260503021559 11 146 0.0 4.8 0.00 0.00 0.00 28 1026.8
20260503014619 11 119 0.0 6.4 0.00 0.00 0.00 27 1026.7
20260503013057 12 121 3.2 8.0 0.00 0.00 0.00 26 1026.5
20260503011557 12 108 3.2 9.7 0.00 0.00 0.00 25 1026.5
20260503010055 13 179 3.2 11.3 0.00 0.00 0.00 24 1026.4
20260503004554 15 106 6.4 12.9 0.00 0.00 0.00 23 1026.4
20260503003055 15 130 6.4 12.9 0.00 0.00 0.00 23 1026.6
20260503001554 15 110 6.4 12.9 0.00 0.00 0.00 23 1026.6
20260503000054 15 110 6.4 20.9 0.00 0.00 0.00 23 1026.8
20260502234554 15 152 8.0 14.5 0.00 0.00 0.00 23 1027.0
20260502233051 16 150 6.4 16.1 0.00 0.00 0.00 23 1027.1
20260502231602 16 95 6.4 24.1 0.00 0.00 0.00 23 1027.2
20260502230048 16 104 6.4 20.9 0.00 0.00 0.00 23 1027.2
20260502224548 16 127 8.0 16.1 0.00 0.00 0.00 23 1027.3
20260502223047 16 140 6.4 19.3 0.00 0.00 0.00 24 1027.4
20260502221546 16 125 3.2 20.9 0.00 0.00 0.00 24 1027.8
20260502220045 16 138 6.4 17.7 0.00 0.00 0.00 24 1028.0